Portada
METAR-TAF:

METAR-TAF

Aeroports :

Reyes, Bolívia

latitud: 14-19S, longitud: 067-23W, altitud: 140 m

Observació

L'informe es va fer fa 1 hora i 0 minuts, a les 16:00 UTC
Vent calma
Temperatura 25°C
Humitat 79%
Pressió 1014 hPa
Visibilitat 10 km o més
Cel ennuvolat a una alçada de 1500 ft
Cel ennuvolat a una alçada de 7000 ft

METAR: SLRY 231600Z 00000KT 9999 BKN015 BKN070 25/21 Q1014

Hora: 13:00 (17:00 UTC)


TAF: manca

Observacions i pronòstics meteorològics de més de 4000 aeroports (METAR i TAF).

Les estacions disponibles són els punts grocs i vermells al mapa.

Posi el ratolí al punt desitjat per veure el nom de l'estació.

Feu clic per veure les observacions i els pronòstics meteorològics.

Per canviar el mapa: feu clic els botons verds amb una creu de color negre per apropar; al botó verd amb un guió per allunyar la imatge; o en les fletxes verdes per a mapes adjacents.


METAR-TAF: